Epoch = 2010 Mar. 25.0 TT T = 2010 Mar. 20.50931 TT Peri. = 177.16663 e = 0.5358311 Node = 91.94124 2000.0 q = 1.6006969 AU Incl. = 26.60578 a = 3.4485224 AU n = 0.15390563 P = 6.40 years
m1 = 16.0 + 5 logΔ + 10.0 log r